SCP
0 0 0 0 -0 -0 0 0 0 0 0 0 0 0 0 0 0 0 0 0 0 0 0 0 0 0 0 0 0 0 0 0 0 0 0 0 0 0 0 0 0 0 0 0
0 0 0 0 0 0 0 0 0 0 0 0 0 0 0 0 0 0 0 0 0 0 0 0 0 0 0 0 0 0 0 0 0 0 0 -0 0 0 -0 0 0 0 0 1
0 0 0 0 0 0 0 0 0 0 0 0 0 0 0 0 0 0 0 0 0 0 0 0 0 0 0 0 0 0 0 0 0 0 0 0 0 -0 0 0 0 -0 0 0
0 0 0 0 0 0 0 0 0 0 0 0 0 0 0 0 0 0 0 0 0 0 0 0 0 0 0 0 0 0 0 0 0 0 0 -0 0 -0 0 0 0 0 0 0
0 0 0 0 0 0 0 0 0 0 0 0 0 0 0 0 -0 -0 0 0 0 0 0 0 0 0 0 0 0 0 0 0 0 0 0 0 -0 -0 -0 0 -0 0 0 0
0 0 0 0 0 0 0 0 0 0 0 0 0 0 -0 -0 0 0 0 0 0 0 0 0 0 0 0 0 0 0 0 0 0 0 0 0 0 0 0 0 0 0 0 1
0 0 0 0 0 0 0 0 0 0 0 0 0 0 -0 0 0 -0 0 0 -0 0 0 0 0 0 0 0 0 0 0 0 0 0 0 0 0 0 0 0 0 0 0 1
0 0 0 0 0 0 0 0 0 0 0 0 0 0 -0 0 0 -0 0 0 0 0 0 0 0 0 1 0 0 0 1 0 0 0 0 0 1 0 0 0 0 0 0 0
0 0 0 0 0 0 0 0 0 0 0 0 0 -0 -0 -0 -0 -0 0 0 0 0 0 0 0 1 0 0 0 0 0 0 0 0 0 0 0 0 0 0 0 0 0 0
0 0 0 0 0 0 0 0 0 0 0 0 -0 -0 -0 0 -0 0 0 0 0 0 0 0 0 1 0 0 0 0 0 0 0 0 0 1 0 0 0 0 0 0 0 0
0 0 0 0 0 0 0 0 0 0 0 0 -0 -0 0 0 -0 0 0 -0 0 0 0 0 0 1 0 0 0 0 0 0 0 0 0 0 0 0 0 0 0 0 0 0
0 0 0 0 0 0 0 0 0 0 0 0 0 -0 -0 -0 -0 0 0 0 0 0 0 0 0 0 0 0 0 0 0 0 0 1 1 1 0 0 1 0 0 0 0 -0
0 0 0 0 0 0 0 0 0 0 0 0 0 -0 0 0 -0 0 0 1 0 0 0 -0 0 0 1 0 0 0 1 1 1 1 1 1 0 0 1 0 0 0 0 0
0 0 0 0 0 0 0 0 0 0 0 0 0 -0 -0 0 -0 -0 0 0 0 0 0 -0 0 0 1 1 1 0 0 1 1 1 1 0 0 0 0 0 0 0 0 0
0 0 0 0 0 -0 0 0 0 0 0 -0 0 -0 -0 -0 0 0 0 0 -0 -0 -0 0 0 0 1 1 0 1 1 1 0 0 0 1 0 0 0 0 0 0 0 0
0 0 0 0 0 0 0 0 0 0 0 0 -0 0 -0 0 0 0 -0 0 -0 -0 -0 0 0 0 1 1 0 1 1 1 3 0 0 0 0 0 0 0 0 0 0 0
0 0 0 0 0 0 0 0 0 0 0 0 -0 0 0 0 -0 0 -0 -0 -0 -0 0 0 0 1 0 2 2 1 1 1 0 0 0 0 0 0 0 0 0 0 0 0
0 0 0 0 0 0 0 0 0 0 0 0 0 -0 -0 -0 -0 -0 0 -0 0 0 0 0 1 0 1 1 1 1 1 1 1 0 0 0 0 0 0 0 0 0 0 0
0 0 0 0 0 0 0 0 0 0 0 0 0 0 -0 -0 -0 -0 -0 -0 -0 -0 0 0 0 0 1 0 1 1 0 1 0 0 0 0 0 -0 -0 0 0 0 0 0
0 0 0 0 0 0 0 0 0 0 0 0 0 0 0 -0 0 -0 -0 -0 -0 0 0 0 0 0 0 1 1 1 0 0 0 0 0 0 0 -0 -0 -0 0 0 0 0
0 0 0 0 0 0 0 0 0 0 0 0 0 0 0 0 0 0 0 0 0 -0 -0 0 0 0 0 0 0 0 0 0 0 0 0 0 -0 -0 0 0 0 0 0 -0
0 0 0 0 0 0 0 0 0 0 0 0 0 0 -0 0 0 0 0 0 0 0 0 0 0 -0 0 0 0 0 0 0 0 0 0 0 0 0 0 0 0 0 0 0
0 0 0 0 0 0 0 0 0 0 0 0 0 -0 0 0 0 0 0 0 0 0 0 0 0 0 0 0 0 0 0 0 0 0 0 0 0 0 0 0 0 0 0 0
0 0 0 0 0 0 0 0 0 0 0 0 0 0 0 0 0 0 0 0 0 0 0 0 0 0 0 0 0 0 0 0 0 0 0 0 0 0 0 0 0 0 0 0
0 0 0 0 0 0 0 0 0 0 0 0 0 0 0 0 0 0 0 0 0 0 0 0 0 0 0 0 0 0 0 0 0 0 0 0 0 0 0 0 0 0 0 0
0 0 0 0 0 0 0 0 0 0 0 0 0 0 0 0 0 0 0 0 0 0 0 0 0 1 0 0 0 0 0 0 0 0 0 0 0 0 0 0 0 0 0 0
0 0 0 0 0 0 0 0 0 0 0 0 0 0 0 0 0 0 0 0 0 -0 0 0 0 0 0 0 0 0 0 0 0 0 0 0 0 0 0 0 0 0 0 0
Wind_Speed_500mb
38 26 19 18 13 12 15 8 7 4 3 17 20 22 28 22 37 38 36 31 33 31 31 34 36 44 46 68 54 53 39 23 26 40 37 35 32 37 31 21 29 21 7 16
41 26 14 15 5 3 7 12 1 4 4 11 13 24 26 36 32 33 42 43 36 19 27 29 37 35 46 39 48 50 33 17 26 30 36 38 26 39 35 33 24 21 26 17
34 23 14 11 4 7 2 11 7 7 7 19 19 22 27 29 36 46 55 49 33 22 29 20 21 26 13 25 45 54 30 24 35 29 35 34 38 32 33 33 20 25 19 36
31 24 15 12 9 13 1 10 5 8 4 8 15 21 23 35 35 45 47 49 43 33 19 29 24 17 8 16 30 39 30 25 32 31 19 42 38 39 32 28 29 27 3 35
34 28 18 19 14 21 9 8 10 6 21 23 27 18 26 35 39 20 54 42 45 36 37 16 34 19 25 13 25 39 32 25 29 22 23 21 39 38 42 40 34 29 32 28
38 31 24 28 24 23 13 8 13 12 4 11 14 19 27 24 26 41 62 34 28 38 35 15 32 35 36 36 29 32 36 25 23 26 20 18 23 19 18 24 23 10 11 35
40 32 26 35 35 30 18 13 9 9 8 10 17 22 38 35 36 36 33 16 34 48 34 35 39 46 47 44 31 29 30 35 25 22 26 32 17 13 6 17 11 14 24 41
35 26 19 33 39 33 32 20 11 7 7 18 33 30 29 40 41 47 38 33 33 36 37 25 24 21 28 30 31 29 24 33 25 14 27 22 15 15 19 18 15 6 18 32
27 15 11 28 34 32 29 35 27 11 8 9 20 40 33 25 26 24 40 30 14 25 18 18 14 11 30 23 27 31 28 27 24 23 28 20 26 33 20 11 19 18 32 33
19 10 9 23 29 28 29 33 37 27 13 38 16 19 21 31 29 20 36 29 31 26 19 20 8 17 31 36 41 46 32 31 33 23 22 19 12 32 28 20 10 35 39 41
19 10 12 19 25 25 26 35 31 31 18 59 58 36 43 41 38 24 28 22 26 18 18 8 8 19 14 26 38 45 32 30 25 29 29 12 21 27 16 22 35 39 38 41
12 10 14 16 19 23 24 27 23 28 33 60 68 60 52 56 50 45 23 30 13 6 7 8 6 14 13 17 32 44 31 33 20 8 4 32 36 26 33 39 45 41 43 42
15 13 14 17 24 24 23 17 19 31 33 45 23 19 18 23 41 40 17 7 4 5 4 2 5 19 21 24 19 25 4 19 10 14 28 25 37 38 36 39 42 42 41 44
16 13 12 15 20 20 16 18 22 30 21 12 14 33 30 22 26 36 39 28 5 15 11 11 6 12 34 17 11 26 17 21 19 31 33 31 29 37 44 45 45 46 43 40
21 20 19 23 21 17 18 23 24 26 21 12 25 43 13 15 16 27 21 12 14 12 8 5 18 30 31 21 32 24 18 28 18 17 49 13 47 45 47 50 50 46 48 45
21 24 24 25 30 23 15 11 19 10 4 13 6 18 23 13 16 20 15 12 16 17 12 13 26 82 22 11 7 25 16 21 6 40 58 45 58 51 48 51 50 48 47 45
17 22 23 23 23 25 22 10 8 11 21 11 11 11 15 13 15 12 8 13 7 8 8 13 23 37 16 17 10 26 20 16 50 58 67 59 58 59 51 52 51 49 45 43
17 18 21 19 22 22 33 27 17 16 20 18 8 6 20 25 14 8 6 4 2 11 10 9 28 16 20 5 21 33 33 47 50 57 42 62 62 57 55 52 52 49 46 44
16 17 21 20 20 28 29 22 14 29 22 13 13 14 3 18 18 11 4 4 8 19 9 17 15 8 5 29 35 34 42 44 36 40 58 60 61 60 57 54 50 48 46 45
10 19 9 10 12 17 11 9 8 17 16 21 19 28 4 15 21 22 17 23 16 9 16 32 17 7 1 8 17 34 33 38 37 56 52 58 57 57 55 52 48 44 45 44
20 12 9 8 6 17 11 9 13 21 10 17 20 31 16 3 6 5 10 7 5 8 6 7 9 3 13 14 20 26 28 40 42 36 47 50 54 56 55 51 46 45 44 42
17 9 9 10 7 8 8 8 10 13 10 13 17 18 27 12 7 5 9 9 6 7 2 6 5 14 46 43 35 38 35 44 45 40 49 48 51 52 51 50 47 45 43 41
17 9 5 6 7 8 11 14 11 9 14 14 17 12 14 12 10 7 6 7 8 2 7 7 5 18 20 20 28 38 38 44 40 44 48 50 53 52 52 50 46 44 42 40
10 10 7 8 11 12 12 17 16 6 13 11 17 12 17 4 7 5 7 7 5 6 5 14 12 16 16 26 33 40 45 47 45 53 54 58 59 55 51 47 46 43 41 38
10 10 8 12 17 14 20 14 13 26 9 6 5 11 22 1 1 5 11 7 6 11 2 8 12 6 17 29 35 38 47 48 52 53 57 60 58 55 50 46 43 39 38 36
7 9 8 17 13 19 27 24 25 14 9 7 18 6 5 10 8 8 10 6 9 3 17 11 15 11 15 28 37 42 48 50 52 56 59 59 56 53 49 46 41 37 35 33
9 11 21 19 14 22 11 11 10 6 18 14 9 7 14 7 8 14 8 6 9 35 15 21 17 9 19 28 36 43 46 49 52 55 57 55 52 49 47 45 39 35 31 29
Wind_Direction_500mb
335 326 324 327 358 33 30 303 242 354 28 247 240 253 260 279 284 281 251 266 283 281 313 307 279 218 223 193 196 207 214 212 222 202 196 222 213 214 218 231 221 261 70 87
331 322 308 315 354 64 342 267 34 284 288 268 267 265 259 277 276 256 264 246 257 276 297 298 258 260 211 198 194 200 191 224 220 186 201 210 221 208 221 225 279 241 248 135
328 321 288 285 293 156 101 281 236 153 250 280 292 296 286 273 269 262 257 255 246 268 269 260 284 265 164 193 195 197 195 223 233 193 197 195 209 226 221 193 223 239 212 146
322 315 285 246 258 173 185 266 25 5 253 279 266 275 284 288 285 269 239 249 246 248 273 318 227 331 98 194 216 189 206 225 233 258 223 195 193 218 202 219 221 241 198 159
316 306 278 222 237 190 239 288 312 248 279 286 285 250 268 279 276 276 283 229 231 242 250 222 282 347 320 210 186 184 192 216 229 228 250 188 191 198 208 213 220 226 250 144
314 302 271 214 216 197 222 251 260 271 240 296 301 270 283 280 262 265 247 252 242 239 261 259 301 293 288 289 301 197 187 218 223 209 201 206 199 209 210 212 219 232 214 124
313 296 262 211 210 212 236 245 268 251 271 282 265 284 296 290 272 272 289 252 224 249 263 284 283 270 257 252 241 250 197 215 215 213 187 213 84 101 112 137 159 77 113 116
314 298 255 211 208 212 215 243 262 246 271 286 286 283 276 280 273 265 259 274 309 243 263 270 271 231 225 212 213 212 229 202 213 203 196 118 137 157 156 166 147 177 124 136
318 309 246 209 207 213 219 233 226 241 285 253 322 300 284 295 280 259 268 235 235 256 254 244 259 246 186 183 185 193 203 244 225 217 213 197 175 160 172 145 173 171 151 149
320 323 220 205 207 213 225 233 239 245 261 277 279 290 297 291 289 265 255 198 225 230 239 246 255 248 198 178 180 182 192 206 219 211 228 91 144 138 138 194 125 148 153 144
300 285 236 209 216 224 222 233 235 243 259 279 278 283 274 270 285 282 335 178 221 218 234 246 246 268 245 168 181 179 185 194 206 211 217 136 174 151 173 105 136 141 146 150
288 280 246 227 218 222 218 231 247 266 261 275 291 290 268 254 260 280 270 262 298 218 222 207 256 287 267 161 174 171 197 201 207 336 123 123 137 115 120 136 140 145 143 136
275 263 258 224 217 219 205 234 268 295 280 286 285 295 296 257 245 245 247 308 76 80 99 128 258 257 274 199 143 153 158 157 139 153 111 112 127 120 127 137 135 138 138 142
260 256 232 198 187 187 210 248 273 289 281 273 280 306 290 251 228 227 231 266 236 164 353 40 292 297 306 345 201 168 176 175 135 106 129 130 126 135 136 134 135 134 136 142
251 247 236 207 202 218 246 266 267 277 265 306 298 306 306 234 237 200 199 180 170 127 145 229 255 270 253 253 237 125 149 146 169 179 160 140 152 148 145 139 139 140 141 141
259 242 240 229 224 232 258 294 224 235 295 301 275 308 286 229 172 186 180 173 137 170 184 236 248 254 271 246 26 83 97 135 11 137 162 144 146 148 147 143 144 144 145 145
262 241 234 230 221 221 213 232 142 262 291 264 256 178 235 204 147 132 145 148 142 92 256 242 270 270 201 265 122 130 128 144 130 136 134 136 148 148 148 146 146 145 144 145
265 232 230 225 227 239 242 251 263 303 260 245 265 177 172 182 159 159 166 72 59 215 236 308 268 257 235 145 119 122 128 126 128 135 144 145 145 146 148 149 149 148 149 150
257 243 210 215 234 233 238 232 241 281 260 288 270 277 160 179 202 162 196 230 246 196 206 179 274 268 284 135 140 145 138 139 142 129 142 145 147 150 153 155 158 157 157 157
218 175 188 235 215 195 184 199 230 212 223 225 261 273 198 211 192 180 179 213 229 226 222 143 224 210 218 70 143 143 149 144 148 141 146 152 153 157 159 162 163 163 162 162
176 188 241 271 218 179 194 220 234 192 238 223 242 247 266 350 252 219 219 268 254 259 137 243 180 181 200 211 169 159 176 172 168 167 157 157 158 160 161 162 161 161 161 163
190 213 239 257 203 195 206 226 224 204 216 234 238 251 234 213 200 195 266 257 224 254 327 234 263 153 171 168 182 172 175 174 169 161 160 162 161 162 161 159 158 159 160 161
188 211 236 229 203 224 227 203 204 204 195 188 223 226 222 208 237 226 226 258 256 348 234 231 233 103 151 173 172 168 175 175 168 160 163 162 160 161 160 157 157 157 159 162
180 176 226 239 203 221 217 248 360 310 200 202 221 220 202 174 210 153 254 268 223 252 211 222 106 129 173 185 180 174 168 171 167 163 165 162 161 159 158 158 157 159 161 162
190 212 216 231 258 286 292 285 254 228 202 271 226 239 226 163 55 276 232 233 206 223 197 71 80 118 163 179 176 169 166 169 165 165 163 162 160 159 159 160 160 163 164 166
226 240 243 243 279 252 244 246 259 245 178 187 248 246 267 192 189 228 241 199 217 359 159 118 66 96 157 170 172 169 167 167 165 164 164 163 162 162 161 160 160 165 168 171
218 241 238 245 274 269 264 264 298 208 209 216 218 217 223 195 214 192 232 264 97 215 93 66 52 131 160 167 170 165 164 164 165 163 163 162 161 161 162 160 162 165 168 172
Wind_Speed_850mb
38 26 19 18 13 12 15 8 7 4 3 17 20 22 28 22 37 38 36 31 33 31 31 34 36 44 46 68 54 53 39 23 26 40 37 35 32 37 31 21 29 21 7 16
41 26 14 15 5 3 7 12 1 4 4 11 13 24 26 36 32 33 42 43 36 19 27 29 37 35 46 39 48 50 33 17 26 30 36 38 26 39 35 33 24 21 26 17
34 23 14 11 4 7 2 11 7 7 7 19 19 22 27 29 36 46 55 49 33 22 29 20 21 26 13 25 45 54 30 24 35 29 35 34 38 32 33 33 20 25 19 36
31 24 15 12 9 13 1 10 5 8 4 8 15 21 23 35 35 45 47 49 43 33 19 29 24 17 8 16 30 39 30 25 32 31 19 42 38 39 32 28 29 27 3 35
34 28 18 19 14 21 9 8 10 6 21 23 27 18 26 35 39 20 54 42 45 36 37 16 34 19 25 13 25 39 32 25 29 22 23 21 39 38 42 40 34 29 32 28
38 31 24 28 24 23 13 8 13 12 4 11 14 19 27 24 26 41 62 34 28 38 35 15 32 35 36 36 29 32 36 25 23 26 20 18 23 19 18 24 23 10 11 35
40 32 26 35 35 30 18 13 9 9 8 10 17 22 38 35 36 36 33 16 34 48 34 35 39 46 47 44 31 29 30 35 25 22 26 32 17 13 6 17 11 14 24 41
35 26 19 33 39 33 32 20 11 7 7 18 33 30 29 40 41 47 38 33 33 36 37 25 24 21 28 30 31 29 24 33 25 14 27 22 15 15 19 18 15 6 18 32
27 15 11 28 34 32 29 35 27 11 8 9 20 40 33 25 26 24 40 30 14 25 18 18 14 11 30 23 27 31 28 27 24 23 28 20 26 33 20 11 19 18 32 33
19 10 9 23 29 28 29 33 37 27 13 38 16 19 21 31 29 20 36 29 31 26 19 20 8 17 31 36 41 46 32 31 33 23 22 19 12 32 28 20 10 35 39 41
19 10 12 19 25 25 26 35 31 31 18 59 58 36 43 41 38 24 28 22 26 18 18 8 8 19 14 26 38 45 32 30 25 29 29 12 21 27 16 22 35 39 38 41
12 10 14 16 19 23 24 27 23 28 33 60 68 60 52 56 50 45 23 30 13 6 7 8 6 14 13 17 32 44 31 33 20 8 4 32 36 26 33 39 45 41 43 42
15 13 14 17 24 24 23 17 19 31 33 45 23 19 18 23 41 40 17 7 4 5 4 2 5 19 21 24 19 25 4 19 10 14 28 25 37 38 36 39 42 42 41 44
16 13 12 15 20 20 16 18 22 30 21 12 14 33 30 22 26 36 39 28 5 15 11 11 6 12 34 17 11 26 17 21 19 31 33 31 29 37 44 45 45 46 43 40
21 20 19 23 21 17 18 23 24 26 21 12 25 43 13 15 16 27 21 12 14 12 8 5 18 30 31 21 32 24 18 28 18 17 49 13 47 45 47 50 50 46 48 45
21 24 24 25 30 23 15 11 19 10 4 13 6 18 23 13 16 20 15 12 16 17 12 13 26 82 22 11 7 25 16 21 6 40 58 45 58 51 48 51 50 48 47 45
17 22 23 23 23 25 22 10 8 11 21 11 11 11 15 13 15 12 8 13 7 8 8 13 23 37 16 17 10 26 20 16 50 58 67 59 58 59 51 52 51 49 45 43
17 18 21 19 22 22 33 27 17 16 20 18 8 6 20 25 14 8 6 4 2 11 10 9 28 16 20 5 21 33 33 47 50 57 42 62 62 57 55 52 52 49 46 44
16 17 21 20 20 28 29 22 14 29 22 13 13 14 3 18 18 11 4 4 8 19 9 17 15 8 5 29 35 34 42 44 36 40 58 60 61 60 57 54 50 48 46 45
10 19 9 10 12 17 11 9 8 17 16 21 19 28 4 15 21 22 17 23 16 9 16 32 17 7 1 8 17 34 33 38 37 56 52 58 57 57 55 52 48 44 45 44
20 12 9 8 6 17 11 9 13 21 10 17 20 31 16 3 6 5 10 7 5 8 6 7 9 3 13 14 20 26 28 40 42 36 47 50 54 56 55 51 46 45 44 42
17 9 9 10 7 8 8 8 10 13 10 13 17 18 27 12 7 5 9 9 6 7 2 6 5 14 46 43 35 38 35 44 45 40 49 48 51 52 51 50 47 45 43 41
17 9 5 6 7 8 11 14 11 9 14 14 17 12 14 12 10 7 6 7 8 2 7 7 5 18 20 20 28 38 38 44 40 44 48 50 53 52 52 50 46 44 42 40
10 10 7 8 11 12 12 17 16 6 13 11 17 12 17 4 7 5 7 7 5 6 5 14 12 16 16 26 33 40 45 47 45 53 54 58 59 55 51 47 46 43 41 38
10 10 8 12 17 14 20 14 13 26 9 6 5 11 22 1 1 5 11 7 6 11 2 8 12 6 17 29 35 38 47 48 52 53 57 60 58 55 50 46 43 39 38 36
7 9 8 17 13 19 27 24 25 14 9 7 18 6 5 10 8 8 10 6 9 3 17 11 15 11 15 28 37 42 48 50 52 56 59 59 56 53 49 46 41 37 35 33
9 11 21 19 14 22 11 11 10 6 18 14 9 7 14 7 8 14 8 6 9 35 15 21 17 9 19 28 36 43 46 49 52 55 57 55 52 49 47 45 39 35 31 29
Wind_Direction_850mb
335 326 324 327 358 33 30 303 242 354 28 247 240 253 260 279 284 281 251 266 283 281 313 307 279 218 223 193 196 207 214 212 222 202 196 222 213 214 218 231 221 261 70 87
331 322 308 315 354 64 342 267 34 284 288 268 267 265 259 277 276 256 264 246 257 276 297 298 258 260 211 198 194 200 191 224 220 186 201 210 221 208 221 225 279 241 248 135
328 321 288 285 293 156 101 281 236 153 250 280 292 296 286 273 269 262 257 255 246 268 269 260 284 265 164 193 195 197 195 223 233 193 197 195 209 226 221 193 223 239 212 146
322 315 285 246 258 173 185 266 25 5 253 279 266 275 284 288 285 269 239 249 246 248 273 318 227 331 98 194 216 189 206 225 233 258 223 195 193 218 202 219 221 241 198 159
316 306 278 222 237 190 239 288 312 248 279 286 285 250 268 279 276 276 283 229 231 242 250 222 282 347 320 210 186 184 192 216 229 228 250 188 191 198 208 213 220 226 250 144
314 302 271 214 216 197 222 251 260 271 240 296 301 270 283 280 262 265 247 252 242 239 261 259 301 293 288 289 301 197 187 218 223 209 201 206 199 209 210 212 219 232 214 124
313 296 262 211 210 212 236 245 268 251 271 282 265 284 296 290 272 272 289 252 224 249 263 284 283 270 257 252 241 250 197 215 215 213 187 213 84 101 112 137 159 77 113 116
314 298 255 211 208 212 215 243 262 246 271 286 286 283 276 280 273 265 259 274 309 243 263 270 271 231 225 212 213 212 229 202 213 203 196 118 137 157 156 166 147 177 124 136
318 309 246 209 207 213 219 233 226 241 285 253 322 300 284 295 280 259 268 235 235 256 254 244 259 246 186 183 185 193 203 244 225 217 213 197 175 160 172 145 173 171 151 149
320 323 220 205 207 213 225 233 239 245 261 277 279 290 297 291 289 265 255 198 225 230 239 246 255 248 198 178 180 182 192 206 219 211 228 91 144 138 138 194 125 148 153 144
300 285 236 209 216 224 222 233 235 243 259 279 278 283 274 270 285 282 335 178 221 218 234 246 246 268 245 168 181 179 185 194 206 211 217 136 174 151 173 105 136 141 146 150
288 280 246 227 218 222 218 231 247 266 261 275 291 290 268 254 260 280 270 262 298 218 222 207 256 287 267 161 174 171 197 201 207 336 123 123 137 115 120 136 140 145 143 136
275 263 258 224 217 219 205 234 268 295 280 286 285 295 296 257 245 245 247 308 76 80 99 128 258 257 274 199 143 153 158 157 139 153 111 112 127 120 127 137 135 138 138 142
260 256 232 198 187 187 210 248 273 289 281 273 280 306 290 251 228 227 231 266 236 164 353 40 292 297 306 345 201 168 176 175 135 106 129 130 126 135 136 134 135 134 136 142
251 247 236 207 202 218 246 266 267 277 265 306 298 306 306 234 237 200 199 180 170 127 145 229 255 270 253 253 237 125 149 146 169 179 160 140 152 148 145 139 139 140 141 141
259 242 240 229 224 232 258 294 224 235 295 301 275 308 286 229 172 186 180 173 137 170 184 236 248 254 271 246 26 83 97 135 11 137 162 144 146 148 147 143 144 144 145 145
262 241 234 230 221 221 213 232 142 262 291 264 256 178 235 204 147 132 145 148 142 92 256 242 270 270 201 265 122 130 128 144 130 136 134 136 148 148 148 146 146 145 144 145
265 232 230 225 227 239 242 251 263 303 260 245 265 177 172 182 159 159 166 72 59 215 236 308 268 257 235 145 119 122 128 126 128 135 144 145 145 146 148 149 149 148 149 150
257 243 210 215 234 233 238 232 241 281 260 288 270 277 160 179 202 162 196 230 246 196 206 179 274 268 284 135 140 145 138 139 142 129 142 145 147 150 153 155 158 157 157 157
218 175 188 235 215 195 184 199 230 212 223 225 261 273 198 211 192 180 179 213 229 226 222 143 224 210 218 70 143 143 149 144 148 141 146 152 153 157 159 162 163 163 162 162
176 188 241 271 218 179 194 220 234 192 238 223 242 247 266 350 252 219 219 268 254 259 137 243 180 181 200 211 169 159 176 172 168 167 157 157 158 160 161 162 161 161 161 163
190 213 239 257 203 195 206 226 224 204 216 234 238 251 234 213 200 195 266 257 224 254 327 234 263 153 171 168 182 172 175 174 169 161 160 162 161 162 161 159 158 159 160 161
188 211 236 229 203 224 227 203 204 204 195 188 223 226 222 208 237 226 226 258 256 348 234 231 233 103 151 173 172 168 175 175 168 160 163 162 160 161 160 157 157 157 159 162
180 176 226 239 203 221 217 248 360 310 200 202 221 220 202 174 210 153 254 268 223 252 211 222 106 129 173 185 180 174 168 171 167 163 165 162 161 159 158 158 157 159 161 162
190 212 216 231 258 286 292 285 254 228 202 271 226 239 226 163 55 276 232 233 206 223 197 71 80 118 163 179 176 169 166 169 165 165 163 162 160 159 159 160 160 163 164 166
226 240 243 243 279 252 244 246 259 245 178 187 248 246 267 192 189 228 241 199 217 359 159 118 66 96 157 170 172 169 167 167 165 164 164 163 162 162 161 160 160 165 168 171
218 241 238 245 274 269 264 264 298 208 209 216 218 217 223 195 214 192 232 264 97 215 93 66 52 131 160 167 170 165 164 164 165 163 163 162 161 161 162 160 162 165 168 172